Location: Unspecified
(0.0000°N, 0.0000°E)
Time: 15:19:48
(UTC+00:00)

deb Briz - Pass Details

Date: 23 February 2026
Orbit: 1589 x 2054 km, 64.9° (Epoch: 5 March)

Event Time Altitude Azimuth Distance (km) Brightness Sun altitude
Rises 03:57:03 0° 202° (SSW) 5,256 ? -33.5°
Reaches altitude 10° 04:00:23 10° 202° (SSW) 4,199 ? -32.7°
Maximum altitude 04:10:58 87° 290° (WNW) 1,724 ? -30.1°
Drops below altitude 10° 04:20:37 10° 20° (NNE) 3,856 ? -27.7°
Sets 04:23:33 0° 20° (NNE) 4,811 ? -27.0°
